Location: The Saddle
(36.8333°N, 80.3417°W)
Time: 02:34:51
(UTC-05:00)

A-11 Canister half - Pass Details

Date: 12 December 2023
Orbit: 1526 x 1682 km, 47.3° (Epoch: 01 March)

Event Time Altitude Azimuth Distance (km) Brightness Sun altitude
Rises 18:28:28 0° 258° (WSW) 4,906 13.5 -16.1°
Reaches altitude 10° 18:31:43 10° 262° (W) 3,929 12.4 -16.8°
Maximum altitude 18:41:39 57° 340° (NNW) 1,921 9.5 -18.7°
Enters shadow 18:48:15 24° 51° (NE) 2,982 10.0 -19.9°
